Time,TemperatureF,DewpointF,PressureIn,WindDirection,WindDirectionDegrees,WindSpeedMPH,WindSpeedGustMPH,Humidity,HourlyPrecipIn,Conditions,Clouds,dailyrainin,SolarRadiationWatts/m^2,SoftwareType,DateUTC
2013-12-24 00:02:00,33.0,31.0,-100.00,North,-999,0.0,4.0,91,0.00,,,-99.99,0.000000,,2013-12-24 06:02:00,
2013-12-24 00:10:00,31.0,29.0,-100.00,North,-999,0.0,4.0,91,0.00,,,0.00,0.000000,,2013-12-24 06:10:00,
2013-12-24 00:42:00,31.0,29.0,-100.00,North,-999,0.0,4.0,91,0.00,,,0.00,0.000000,,2013-12-24 06:42:00,
2013-12-24 00:52:00,31.0,29.0,-100.00,North,-999,0.0,4.0,91,0.00,,,0.00,0.000000,,2013-12-24 06:52:00,
2013-12-24 01:02:00,31.0,29.0,-100.00,North,-999,0.0,4.0,91,0.00,,,0.00,0.000000,,2013-12-24 07:02:00,
2013-12-24 01:10:00,29.0,28.0,-100.00,North,-999,0.0,2.0,96,0.00,,,0.00,0.000000,,2013-12-24 07:10:00,
2013-12-24 01:42:00,29.0,28.0,-100.00,North,-999,0.0,2.0,96,0.00,,,0.00,0.000000,,2013-12-24 07:42:00,
2013-12-24 01:52:00,29.0,28.0,-100.00,North,-999,0.0,2.0,96,0.00,,,0.00,0.000000,,2013-12-24 07:52:00,
2013-12-24 02:02:00,29.0,28.0,-100.00,North,-999,0.0,2.0,96,0.00,,,0.00,0.000000,,2013-12-24 08:02:00,
2013-12-24 02:10:00,31.0,30.0,-100.00,NNE,26,6.0,7.0,95,0.00,,,-99.99,0.000000,,2013-12-24 08:10:00,
2013-12-24 02:42:00,31.0,30.0,-100.00,NNE,26,6.0,7.0,95,0.00,,,-99.99,0.000000,,2013-12-24 08:42:00,
2013-12-24 02:52:00,31.0,30.0,-100.00,NNE,26,6.0,7.0,95,0.00,,,-99.99,0.000000,,2013-12-24 08:52:00,
2013-12-24 03:02:00,31.0,30.0,-100.00,NNE,26,6.0,7.0,95,0.00,,,-99.99,0.000000,,2013-12-24 09:02:00,
2013-12-24 03:10:00,29.0,27.0,-100.00,SSW,195,3.0,7.0,92,0.00,,,0.00,0.000000,,2013-12-24 09:10:00,
2013-12-24 03:43:00,29.0,27.0,-100.00,SSW,195,3.0,7.0,92,0.00,,,0.00,0.000000,,2013-12-24 09:43:00,
2013-12-24 03:53:00,29.0,27.0,-100.00,SSW,195,3.0,7.0,92,0.00,,,0.00,0.000000,,2013-12-24 09:53:00,
2013-12-24 04:03:00,29.0,27.0,-100.00,SSW,195,3.0,7.0,92,0.00,,,0.00,0.000000,,2013-12-24 10:03:00,
2013-12-24 04:10:00,29.0,27.0,-100.00,SSW,207,1.0,3.0,93,0.00,,,0.00,0.000000,,2013-12-24 10:10:00,
2013-12-24 04:43:00,29.0,27.0,-100.00,SSW,207,1.0,3.0,93,0.00,,,0.00,0.000000,,2013-12-24 10:43:00,
2013-12-24 04:53:00,29.0,27.0,-100.00,SSW,207,1.0,3.0,93,0.00,,,0.00,0.000000,,2013-12-24 10:53:00,
2013-12-24 05:02:00,29.0,27.0,-100.00,SSW,207,1.0,3.0,93,0.00,,,0.00,0.000000,,2013-12-24 11:02:00,
2013-12-24 05:10:00,29.0,28.0,-100.00,North,10,2.0,4.0,95,0.00,,,0.00,0.000000,,2013-12-24 11:10:00,
2013-12-24 05:42:00,29.0,28.0,-100.00,North,10,2.0,4.0,95,0.00,,,0.00,0.000000,,2013-12-24 11:42:00,
2013-12-24 05:53:00,29.0,28.0,-100.00,North,10,2.0,4.0,95,0.00,,,0.00,0.000000,,2013-12-24 11:53:00,
2013-12-24 06:02:00,29.0,28.0,-100.00,North,10,2.0,4.0,95,0.00,,,0.00,0.000000,,2013-12-24 12:02:00,
2013-12-24 06:10:00,28.0,27.0,-100.00,NE,35,1.0,3.0,96,0.00,,,0.00,0.000000,,2013-12-24 12:10:00,
2013-12-24 06:42:00,28.0,27.0,-100.00,NE,35,1.0,3.0,96,0.00,,,0.00,0.000000,,2013-12-24 12:42:00,
2013-12-24 06:52:00,28.0,27.0,-100.00,NE,35,1.0,3.0,96,0.00,,,0.00,0.000000,,2013-12-24 12:52:00,
2013-12-24 07:02:00,28.0,27.0,-100.00,NE,35,1.0,3.0,96,0.00,,,0.00,0.000000,,2013-12-24 13:02:00,
2013-12-24 07:10:00,28.0,25.0,-100.00,NE,48,1.0,5.0,90,0.00,,,0.00,0.000000,,2013-12-24 13:10:00,
2013-12-24 07:42:00,28.0,25.0,-100.00,NE,48,1.0,5.0,90,0.00,,,0.00,0.000000,,2013-12-24 13:42:00,
2013-12-24 07:52:00,28.0,25.0,-100.00,NE,48,1.0,5.0,90,0.00,,,0.00,0.000000,,2013-12-24 13:52:00,
2013-12-24 08:02:00,28.0,25.0,-100.00,NE,48,1.0,5.0,90,0.00,,,0.00,0.000000,,2013-12-24 14:02:00,
2013-12-24 08:10:00,31.0,30.0,-100.00,North,-999,0.0,3.0,95,0.00,,,0.00,39.000000,,2013-12-24 14:10:00,
2013-12-24 08:42:00,31.0,30.0,-100.00,North,-999,0.0,3.0,95,0.00,,,0.00,39.000000,,2013-12-24 14:42:00,
2013-12-24 08:52:00,31.0,30.0,-100.00,North,-999,0.0,3.0,95,0.00,,,0.00,39.000000,,2013-12-24 14:52:00,
2013-12-24 09:02:00,31.0,30.0,-100.00,North,-999,0.0,3.0,95,0.00,,,0.00,39.000000,,2013-12-24 15:02:00,
2013-12-24 09:10:00,38.0,31.0,-100.00,ESE,107,2.0,4.0,75,0.00,,,0.00,253.000000,,2013-12-24 15:10:00,
2013-12-24 09:43:00,38.0,31.0,-100.00,ESE,107,2.0,4.0,75,0.00,,,0.00,253.000000,,2013-12-24 15:43:00,
2013-12-24 09:54:00,38.0,31.0,-100.00,ESE,107,2.0,4.0,75,0.00,,,0.00,253.000000,,2013-12-24 15:54:00,
2013-12-24 10:03:00,38.0,31.0,-100.00,ESE,107,2.0,4.0,75,0.00,,,0.00,253.000000,,2013-12-24 16:03:00,
2013-12-24 10:10:00,43.0,33.0,-100.00,SE,146,5.0,9.0,68,0.00,,,0.00,437.000000,,2013-12-24 16:10:00,
2013-12-24 10:43:00,43.0,33.0,-100.00,SE,146,5.0,9.0,68,0.00,,,0.00,437.000000,,2013-12-24 16:43:00,
2013-12-24 10:53:00,43.0,33.0,-100.00,SE,146,5.0,9.0,68,0.00,,,0.00,437.000000,,2013-12-24 16:53:00,
2013-12-24 11:02:00,43.0,33.0,-100.00,SE,146,5.0,9.0,68,0.00,,,0.00,437.000000,,2013-12-24 17:02:00,
2013-12-24 11:10:00,47.0,32.0,-100.00,SSE,166,5.0,10.0,56,0.00,,,0.00,583.000000,,2013-12-24 17:10:00,
2013-12-24 11:42:00,47.0,32.0,-100.00,SSE,166,5.0,10.0,56,0.00,,,0.00,583.000000,,2013-12-24 17:42:00,
2013-12-24 11:52:00,47.0,32.0,-100.00,SSE,166,5.0,10.0,56,0.00,,,0.00,583.000000,,2013-12-24 17:52:00,
2013-12-24 12:02:00,47.0,32.0,-100.00,SSE,166,5.0,10.0,56,0.00,,,0.00,583.000000,,2013-12-24 18:02:00,
2013-12-24 12:10:00,50.0,31.0,-100.00,SE,140,5.0,10.0,47,0.00,,,0.00,677.000000,,2013-12-24 18:10:00,
2013-12-24 12:42:00,50.0,31.0,-100.00,SE,140,5.0,10.0,47,0.00,,,0.00,677.000000,,2013-12-24 18:42:00,
2013-12-24 12:52:00,50.0,31.0,-100.00,SE,140,5.0,10.0,47,0.00,,,0.00,677.000000,,2013-12-24 18:52:00,
2013-12-24 13:01:00,50.0,31.0,-100.00,SE,140,5.0,10.0,47,0.00,,,0.00,677.000000,,2013-12-24 19:01:00,
2013-12-24 13:10:00,53.0,29.0,-100.00,SE,144,6.0,12.0,40,0.00,,,0.00,699.000000,,2013-12-24 19:10:00,
2013-12-24 13:42:00,53.0,29.0,-100.00,SE,144,6.0,12.0,40,0.00,,,0.00,699.000000,,2013-12-24 19:42:00,
2013-12-24 13:52:00,53.0,29.0,-100.00,SE,144,6.0,12.0,40,0.00,,,0.00,699.000000,,2013-12-24 19:52:00,
2013-12-24 14:01:00,53.0,29.0,-100.00,SE,144,6.0,12.0,40,0.00,,,0.00,699.000000,,2013-12-24 20:01:00,
2013-12-24 14:10:00,55.0,30.0,-100.00,SSE,150,6.0,12.0,38,0.00,,,0.00,647.000000,,2013-12-24 20:10:00,
2013-12-24 14:42:00,55.0,30.0,-100.00,SSE,150,6.0,12.0,38,0.00,,,0.00,647.000000,,2013-12-24 20:42:00,
2013-12-24 14:52:00,55.0,30.0,-100.00,SSE,150,6.0,12.0,38,0.00,,,0.00,647.000000,,2013-12-24 20:52:00,
2013-12-24 15:02:00,55.0,30.0,-100.00,SSE,150,6.0,12.0,38,0.00,,,0.00,647.000000,,2013-12-24 21:02:00,
2013-12-24 15:10:00,56.0,29.0,-100.00,South,181,7.0,13.0,36,0.00,,,0.00,528.000000,,2013-12-24 21:10:00,
2013-12-24 15:43:00,56.0,29.0,-100.00,South,181,7.0,13.0,36,0.00,,,0.00,528.000000,,2013-12-24 21:43:00,
2013-12-24 15:53:00,56.0,29.0,-100.00,South,181,7.0,13.0,36,0.00,,,0.00,528.000000,,2013-12-24 21:53:00,
2013-12-24 16:03:00,56.0,29.0,-100.00,South,181,7.0,13.0,36,0.00,,,0.00,528.000000,,2013-12-24 22:03:00,
2013-12-24 16:10:00,56.0,29.0,-100.00,South,169,7.0,12.0,36,0.00,,,0.00,353.000000,,2013-12-24 22:10:00,
2013-12-24 16:43:00,56.0,29.0,-100.00,South,169,7.0,12.0,36,0.00,,,0.00,353.000000,,2013-12-24 22:43:00,
2013-12-24 16:53:00,56.0,29.0,-100.00,South,169,7.0,12.0,36,0.00,,,0.00,353.000000,,2013-12-24 22:53:00,
2013-12-24 17:02:00,56.0,29.0,-100.00,South,169,7.0,12.0,36,0.00,,,0.00,353.000000,,2013-12-24 23:02:00,
2013-12-24 17:10:00,53.0,29.0,-100.00,SSE,156,4.0,12.0,40,0.00,,,0.00,151.000000,,2013-12-24 23:10:00,
2013-12-24 17:42:00,53.0,29.0,-100.00,SSE,156,4.0,12.0,40,0.00,,,0.00,151.000000,,2013-12-24 23:42:00,
2013-12-24 17:53:00,53.0,29.0,-100.00,SSE,156,4.0,12.0,40,0.00,,,0.00,151.000000,,2013-12-24 23:53:00,
2013-12-24 18:02:00,53.0,29.0,-100.00,SSE,156,4.0,12.0,40,0.00,,,0.00,151.000000,,2013-12-25 00:02:00,
2013-12-24 18:10:00,48.0,30.0,-100.00,ESE,120,3.0,6.0,49,0.00,,,0.00,8.000000,,2013-12-25 00:10:00,
2013-12-24 18:42:00,48.0,30.0,-100.00,ESE,120,3.0,6.0,49,0.00,,,0.00,8.000000,,2013-12-25 00:42:00,
2013-12-24 18:52:00,48.0,30.0,-100.00,ESE,120,3.0,6.0,49,0.00,,,0.00,8.000000,,2013-12-25 00:52:00,
2013-12-24 19:02:00,48.0,30.0,-100.00,ESE,120,3.0,6.0,49,0.00,,,0.00,8.000000,,2013-12-25 01:02:00,
2013-12-24 19:10:00,47.0,29.0,-100.00,SE,140,3.0,6.0,49,0.00,,,0.00,0.000000,,2013-12-25 01:10:00,
2013-12-24 19:42:00,47.0,29.0,-100.00,SE,140,3.0,6.0,49,0.00,,,0.00,0.000000,,2013-12-25 01:42:00,
2013-12-24 19:52:00,47.0,29.0,-100.00,SE,140,3.0,6.0,49,0.00,,,0.00,0.000000,,2013-12-25 01:52:00,
2013-12-24 20:01:00,47.0,29.0,-100.00,SE,140,3.0,6.0,49,0.00,,,0.00,0.000000,,2013-12-25 02:01:00,
2013-12-24 20:10:00,44.0,30.0,-100.00,SE,136,5.0,9.0,57,0.00,,,0.00,0.000000,,2013-12-25 02:10:00,
2013-12-24 20:42:00,44.0,30.0,-100.00,SE,136,5.0,9.0,57,0.00,,,0.00,0.000000,,2013-12-25 02:42:00,
2013-12-24 20:53:00,44.0,30.0,-100.00,SE,136,5.0,9.0,57,0.00,,,0.00,0.000000,,2013-12-25 02:53:00,
2013-12-24 21:02:00,44.0,30.0,-100.00,SE,136,5.0,9.0,57,0.00,,,0.00,0.000000,,2013-12-25 03:02:00,
2013-12-24 21:10:00,42.0,30.0,-100.00,SE,136,5.0,9.0,61,0.00,,,0.00,0.000000,,2013-12-25 03:10:00,
2013-12-24 21:43:00,42.0,30.0,-100.00,SE,136,5.0,9.0,61,0.00,,,0.00,0.000000,,2013-12-25 03:43:00,
2013-12-24 21:53:00,42.0,30.0,-100.00,SE,136,5.0,9.0,61,0.00,,,0.00,0.000000,,2013-12-25 03:53:00,
2013-12-24 22:03:00,42.0,30.0,-100.00,SE,136,5.0,9.0,61,0.00,,,0.00,0.000000,,2013-12-25 04:03:00,
2013-12-24 22:10:00,41.0,29.0,-100.00,SSE,158,3.0,8.0,62,0.00,,,0.00,0.000000,,2013-12-25 04:10:00,
2013-12-24 22:43:00,41.0,29.0,-100.00,SSE,158,3.0,8.0,62,0.00,,,0.00,0.000000,,2013-12-25 04:43:00,
2013-12-24 22:53:00,41.0,29.0,-100.00,SSE,158,3.0,8.0,62,0.00,,,0.00,0.000000,,2013-12-25 04:53:00,
2013-12-24 23:02:00,41.0,29.0,-100.00,SSE,158,3.0,8.0,62,0.00,,,0.00,0.000000,,2013-12-25 05:02:00,
2013-12-24 23:10:00,40.0,30.0,-100.00,South,191,6.0,8.0,66,0.00,,,0.00,0.000000,,2013-12-25 05:10:00,
2013-12-24 23:43:00,40.0,30.0,-100.00,South,191,6.0,8.0,66,0.00,,,0.00,0.000000,,2013-12-25 05:43:00,
2013-12-24 23:53:00,40.0,30.0,-100.00,South,191,6.0,8.0,66,0.00,,,0.00,0.000000,,2013-12-25 05:53:00,